Starlink 30091

operational
NORAD ID: 57463 Int'l Des: 2023-107 Owner: SPXS Country: US Constellation: starlink
LEOCIRCULAR

Über Starlink 30091

Beschreibung wird geladen...

Live-Position

3D-Globus wird geladen...

Nächste Überflüge

Höhenverlauf

Altitude vs Time

uPlot chart will show altitude changes over time

Zweizeiliger Elementsatz

1 57463U 23107G 25302.79692860 .00000651 00000-0 63235-4 0 9992
2 57463 43.0045 330.2098 0000974 279.1092 80.9640 15.02537031125426
Epoch: 29. Okt. 2025 • Age: 81 hours

Aktueller Status

Höhe 571.4 km
Geschwindigkeit 7.58 km/s
Subsatellitenpunkt -41.75°S, 101.77°E
Startdatum 28. Juli 2023
Alter 2.2 years
Typ internet

Technische Details

Klassifizierung Payload
Masse 730.00 kg
Trockenmasse 700.00 kg
Gesamtmasse 730.00 kg
Länge 0.30 m
Durchmesser 4.10 m
Spannweite 29.00 m
Form Box + pan
Hersteller SPXS
Bus-Typ Starlink V2M
Phasenstatus In Orbit
Besitzer/Staat SPXS/US

Große Konstellationen

Loading constellations...